BWA901 EGLL-TTPP

Flight info

Callsign BWA901
Flight time N/A
Altitude 31000
Route GASGU N866 SAM DCT SIDHO DCT EVBAK/M083F310 DCT TAMEL DCT 45N020W 40N030W/M083F340 33N040W/M083F360 24N050W/M083F380 15N060W/N0480F380 DCT GND DCT CURRY DCT POS
Aircraft L101/H-SDFHIRWXY/S

Departure

Time N/A
Airport London Heathrow Airport (EGLL)

Arrival

Time 2026-04-29 19:34
Airport Piarco International Airport (TTPP)
Time Latitude Longitude Altitude Speed Heading
2026-04-29 19:03 13.05381 -61.16524 34902 ft 443 kts 213°
2026-04-29 19:03 13.02686 -61.18103 35484 ft 455 kts 213°
2026-04-29 19:04 12.99885 -61.19763 35015 ft 471 kts 214°
2026-04-29 19:04 12.97067 -61.21444 34779 ft 463 kts 213°
2026-04-29 19:04 12.94282 -61.23104 34948 ft 469 kts 214°
2026-04-29 19:04 12.91423 -61.24811 35057 ft 480 kts 213°
2026-04-29 19:05 12.85606 -61.28266 35049 ft 484 kts 213°
2026-04-29 19:05 12.79815 -61.31689 35127 ft 484 kts 213°
2026-04-29 19:06 12.73975 -61.35142 35153 ft 484 kts 213°
2026-04-29 19:07 12.65242 -61.40304 35083 ft 483 kts 213°
2026-04-29 19:07 12.59422 -61.43742 35039 ft 483 kts 213°
2026-04-29 19:08 12.53607 -61.47176 34987 ft 483 kts 213°
2026-04-29 19:08 12.47763 -61.50624 34951 ft 485 kts 213°
2026-04-29 19:09 12.41912 -61.54073 34905 ft 486 kts 213°
2026-04-29 19:09 12.36048 -61.57529 34860 ft 486 kts 213°
2026-04-29 19:10 12.30186 -61.60982 34811 ft 486 kts 213°
2026-04-29 19:10 12.24319 -61.64436 34752 ft 487 kts 212°
2026-04-29 19:10 12.21370 -61.66173 34409 ft 491 kts 212°
2026-04-29 19:11 12.18688 -61.67751 33904 ft 483 kts 212°
2026-04-29 19:11 12.15760 -61.69470 33233 ft 477 kts 212°
2026-04-29 19:11 12.12894 -61.71151 32611 ft 476 kts 212°
2026-04-29 19:11 12.10029 -61.72836 31997 ft 476 kts 212°
2026-04-29 19:12 12.07147 -61.74531 31393 ft 477 kts 212°
2026-04-29 19:12 12.04245 -61.76181 30798 ft 479 kts 207°
2026-04-29 19:12 12.01118 -61.77272 30150 ft 483 kts 191°
2026-04-29 19:12 11.98910 -61.77479 29704 ft 483 kts 181°
2026-04-29 19:13 11.94399 -61.77292 28902 ft 486 kts 179°
2026-04-29 19:13 11.91017 -61.77254 28255 ft 487 kts 181°
2026-04-29 19:13 11.87631 -61.77296 27634 ft 487 kts 181°
2026-04-29 19:13 11.84246 -61.77266 27019 ft 486 kts 179°
2026-04-29 19:14 11.80873 -61.77118 26422 ft 486 kts 177°
2026-04-29 19:14 11.77497 -61.76896 25832 ft 486 kts 176°
2026-04-29 19:14 11.74177 -61.76660 25270 ft 485 kts 176°
2026-04-29 19:14 11.70813 -61.76428 24716 ft 483 kts 176°
2026-04-29 19:15 11.67526 -61.76205 24144 ft 461 kts 175°
2026-04-29 19:15 11.64406 -61.75991 23600 ft 438 kts 175°
2026-04-29 19:15 11.61433 -61.75781 22975 ft 420 kts 175°
2026-04-29 19:15 11.58535 -61.75572 22345 ft 416 kts 175°
2026-04-29 19:16 11.55647 -61.75361 21734 ft 416 kts 175°
2026-04-29 19:16 11.52772 -61.75151 21111 ft 414 kts 174°
2026-04-29 19:16 11.49909 -61.74943 20583 ft 410 kts 174°
2026-04-29 19:16 11.47073 -61.74737 20073 ft 408 kts 174°
2026-04-29 19:17 11.44252 -61.74532 19587 ft 405 kts 174°
2026-04-29 19:17 11.41442 -61.74328 19107 ft 403 kts 174°
2026-04-29 19:17 11.38660 -61.74126 18634 ft 400 kts 174°
2026-04-29 19:17 11.35892 -61.73924 18166 ft 398 kts 174°
2026-04-29 19:18 11.33131 -61.73724 17627 ft 396 kts 174°
2026-04-29 19:18 11.31279 -61.73590 17276 ft 394 kts 174°
2026-04-29 19:18 11.27670 -61.73330 16590 ft 391 kts 173°
2026-04-29 19:18 11.24967 -61.73134 16080 ft 388 kts 173°
2026-04-29 19:19 11.22280 -61.72939 15577 ft 386 kts 173°
2026-04-29 19:19 11.19613 -61.72745 15090 ft 384 kts 173°
2026-04-29 19:19 11.16956 -61.72552 14604 ft 381 kts 173°
2026-04-29 19:19 11.14315 -61.72359 14121 ft 379 kts 173°
2026-04-29 19:20 11.11692 -61.72169 13635 ft 377 kts 173°
2026-04-29 19:20 11.09081 -61.71979 13112 ft 374 kts 173°
2026-04-29 19:20 11.06491 -61.71788 12582 ft 372 kts 173°
2026-04-29 19:20 11.03925 -61.71601 12076 ft 369 kts 173°
2026-04-29 19:21 11.01371 -61.71415 11559 ft 366 kts 173°
2026-04-29 19:21 10.98843 -61.71232 11073 ft 363 kts 173°
2026-04-29 19:21 10.96329 -61.71051 10573 ft 360 kts 173°
2026-04-29 19:21 10.93839 -61.70870 10096 ft 358 kts 174°
2026-04-29 19:22 10.91371 -61.70690 9595 ft 352 kts 174°
2026-04-29 19:22 10.88989 -61.70520 9074 ft 335 kts 174°
2026-04-29 19:22 10.86719 -61.70359 8545 ft 320 kts 174°
2026-04-29 19:22 10.84535 -61.70204 8037 ft 309 kts 174°
2026-04-29 19:23 10.82427 -61.70051 7526 ft 299 kts 174°
2026-04-29 19:23 10.80380 -61.69902 7030 ft 291 kts 174°
2026-04-29 19:23 10.78387 -61.69757 6536 ft 284 kts 174°
2026-04-29 19:23 10.76436 -61.69615 6039 ft 278 kts 174°
2026-04-29 19:24 10.74525 -61.69478 5516 ft 273 kts 174°
2026-04-29 19:24 10.72666 -61.69344 5013 ft 270 kts 174°
2026-04-29 19:24 10.70800 -61.69209 4505 ft 269 kts 174°
2026-04-29 19:24 10.68957 -61.69076 4202 ft 259 kts 174°
2026-04-29 19:25 10.67181 -61.68940 4053 ft 245 kts 171°
2026-04-29 19:25 10.65649 -61.68459 3976 ft 225 kts 144°
2026-04-29 19:25 10.64648 -61.67387 4102 ft 194 kts 123°
2026-04-29 19:25 10.64020 -61.66223 4331 ft 185 kts 116°
2026-04-29 19:26 10.63509 -61.65125 4480 ft 189 kts 115°
2026-04-29 19:26 10.62960 -61.63912 4422 ft 189 kts 114°
2026-04-29 19:26 10.62371 -61.62720 4254 ft 189 kts 120°
2026-04-29 19:26 10.61653 -61.61602 4094 ft 188 kts 123°
2026-04-29 19:27 10.60907 -61.60525 4032 ft 185 kts 124°
2026-04-29 19:27 10.60163 -61.59461 4010 ft 184 kts 124°
2026-04-29 19:27 10.59595 -61.58310 3973 ft 184 kts 105°
2026-04-29 19:27 10.59464 -61.57027 3868 ft 179 kts 92°
2026-04-29 19:28 10.59485 -61.55801 3707 ft 169 kts 90°
2026-04-29 19:28 10.59503 -61.54645 3551 ft 159 kts 90°
2026-04-29 19:28 10.59512 -61.53530 3382 ft 158 kts 91°
2026-04-29 19:28 10.59514 -61.52396 3212 ft 162 kts 91°
2026-04-29 19:29 10.59515 -61.52188 3174 ft 162 kts 91°
2026-04-29 19:29 10.59521 -61.51075 2858 ft 161 kts 91°
2026-04-29 19:30 10.59525 -61.49963 2619 ft 155 kts 91°
2026-04-29 19:30 10.59528 -61.48878 2567 ft 155 kts 91°
2026-04-29 19:30 10.59530 -61.47768 2570 ft 159 kts 91°
2026-04-29 19:30 10.59535 -61.46623 2450 ft 167 kts 91°
2026-04-29 19:31 10.59543 -61.45456 2255 ft 163 kts 92°
2026-04-29 19:31 10.59537 -61.44327 2056 ft 157 kts 92°
2026-04-29 19:31 10.59535 -61.43219 1629 ft 154 kts 92°
2026-04-29 19:31 10.59532 -61.42195 1378 ft 134 kts 89°
2026-04-29 19:32 10.59541 -61.41205 1530 ft 144 kts 93°
2026-04-29 19:32 10.59534 -61.40494 1477 ft 157 kts 93°
2026-04-29 19:32 10.59525 -61.39394 1119 ft 153 kts 91°
2026-04-29 19:32 10.59534 -61.38321 772 ft 151 kts 93°
2026-04-29 19:33 10.59535 -61.37253 455 ft 150 kts 94°
2026-04-29 19:33 10.59539 -61.36190 275 ft 151 kts 93°
2026-04-29 19:33 10.59537 -61.35113 86 ft 153 kts 94°
2026-04-29 19:33 10.59533 -61.34143 46 ft 111 kts 90°
2026-04-29 19:34 10.59537 -61.33520 48 ft 69 kts 89°
2026-04-29 19:34 10.59539 -61.33130 54 ft 47 kts 90°
2026-04-29 19:34 10.59554 -61.32953 51 ft 6 kts
2026-04-29 19:34 10.59630 -61.32953 58 ft 15 kts 359°
2026-04-29 19:35 10.59710 -61.33005 57 ft 16 kts 280°
2026-04-29 19:35 10.59712 -61.33137 57 ft 21 kts 269°
2026-04-29 19:35 10.59710 -61.33302 56 ft 26 kts 270°
2026-04-29 19:35 10.59709 -61.33499 54 ft 30 kts 270°
2026-04-29 19:36 10.59708 -61.33723 52 ft 33 kts 273°
2026-04-29 19:36 10.59708 -61.33935 50 ft 25 kts 270°
2026-04-29 19:36 10.59706 -61.34099 46 ft 18 kts 269°
2026-04-29 19:36 10.59764 -61.34177 46 ft 17 kts
2026-04-29 19:37 10.59896 -61.34178 47 ft 21 kts 359°
2026-04-29 19:37 10.59987 -61.34174 43 ft 15 kts 24°
2026-04-29 19:37 10.59991 -61.34107 43 ft 0 kts 103°